Weather History for Nuiqsut, AK

Change the Weather History Date:

Wednesday, October 30, 2013

  Actual Average (PAKU) Record (PAKU)
Temperature  
Mean Temperature 16 °F -  
Max Temperature 19 °F 10 °F 33 °F (2003)
Min Temperature 12 °F 2 °F -21 °F (1985)
Degree Days  
Heating Degree Days 48    
Moisture  
Dew Point 17 °F    
Average Humidity 97    
Maximum Humidity 100    
Minimum Humidity 92    
Precipitation  
Precipitation 0.00 in - - ()
Sea Level Pressure  
Sea Level Pressure 29.56 in    
Wind  
Wind Speed 3 mph (North)    
Max Wind Speed 12 mph    
Max Gust Speed -    
Visibility 4 miles    
Events Rain , Snow    
Averages and records for this station are not official NWS values.
T = Trace of Precipitation, MM = Missing Value Source: NWS Daily Summary

Daily Weather History Graph

Daily Weather History Graph

Search for Another Location

Airport:

Trip Planner

Search our weather history database for the weather conditions in past years. The results will help you decide how hot, cold, wet, or windy it might be!

Date:

Astronomy

Oct. 30, 2013 Rise Set
Actual Time 10:29 AM AKDT 5:04 PM AKDT
Civil Twilight 9:15 AM AKDT 6:18 PM AKDT
Nautical Twilight 8:01 AM AKDT 7:32 PM AKDT
Astronomical Twilight 6:49 AM AKDT 8:43 PM AKDT
Moon 4:19 AM AKDT (10/30) 4:47 PM AKDT (10/30)
Length of Visible Light 9h 02m
Length of Day
6h 34m
Waning Crescent, 16% of the Moon is Illuminated
Oct 30
Waning Crescent
Nov 3
New
Nov 9
First Quarter
Nov 17
Full
Nov 25
Last Quarter

Hourly Weather History & Observations

Time (AKDT) Temp. Windchill Dew Point Humidity Pressure Visibility Wind Dir Wind Speed Gust Speed Precip Events Conditions
12:53 AM 19.0 °F - 17.1 °F 92% 29.58 in 9.0 mi Calm Calm - 0.00 in   Overcast
1:02 AM 19.4 °F - 19.4 °F 100% 29.58 in 9.0 mi Calm Calm - N/A   Overcast
1:53 AM 18.0 °F - 18.0 °F 100% 29.58 in 5.0 mi Calm Calm - 0.00 in   Overcast
2:53 AM 17.1 °F 11.7 °F 17.1 °F 100% 29.58 in 4.0 mi WSW 3.5 mph - 0.00 in   Overcast
3:00 AM 17.6 °F - 17.6 °F 100% 29.58 in 2.5 mi Calm Calm - 0.00 in Rain Light Freezing Rain
3:16 AM 17.6 °F 12.3 °F 17.6 °F 100% 29.58 in 3.0 mi WSW 3.5 mph - 0.00 in Rain Light Freezing Rain
3:44 AM 17.6 °F 12.3 °F 17.6 °F 100% 29.58 in 2.0 mi SW 3.5 mph - 0.00 in Rain Light Freezing Rain
3:51 AM 19.4 °F 14.3 °F 17.6 °F 93% 29.58 in 1.5 mi SW 3.5 mph - 0.00 in Rain Light Freezing Rain
3:53 AM 19.0 °F - 18.0 °F 96% 29.58 in 1.5 mi Calm Calm - 0.00 in Rain Light Freezing Rain
4:07 AM 17.6 °F 12.3 °F 17.6 °F 100% 29.58 in 2.0 mi SW 3.5 mph - 0.00 in Rain Light Freezing Rain
4:16 AM 17.6 °F 12.3 °F 17.6 °F 100% 29.58 in 1.5 mi SW 3.5 mph - 0.00 in Rain Light Freezing Rain
4:51 AM 19.4 °F 12.8 °F 19.4 °F 100% 29.57 in 2.5 mi WSW 4.6 mph - 0.00 in Rain Light Freezing Rain
4:53 AM 19.0 °F 12.3 °F 19.0 °F 100% 29.58 in 2.5 mi WSW 4.6 mph - 0.00 in Rain Light Freezing Rain
5:03 AM 19.4 °F 14.3 °F 19.4 °F 100% 29.57 in 1.8 mi WSW 3.5 mph - 0.00 in Rain Light Freezing Rain
5:10 AM 19.4 °F 14.3 °F 19.4 °F 100% 29.58 in 1.2 mi WSW 3.5 mph - 0.00 in Rain Light Freezing Rain
5:41 AM 19.4 °F 12.8 °F 19.4 °F 100% 29.57 in 1.2 mi West 4.6 mph - 0.00 in Rain Light Freezing Rain
5:51 AM 19.4 °F 14.3 °F 19.4 °F 100% 29.57 in 2.0 mi WSW 3.5 mph - 0.00 in Rain Light Freezing Rain
5:53 AM 19.0 °F 13.9 °F 18.0 °F 96% 29.57 in 2.0 mi WSW 3.5 mph - 0.00 in Rain Light Freezing Rain
5:57 AM 19.4 °F 14.3 °F 17.6 °F 93% 29.57 in 3.0 mi West 3.5 mph - N/A   Overcast
6:29 AM 17.6 °F 12.3 °F 17.6 °F 100% 29.57 in 2.5 mi West 3.5 mph - N/A   Overcast
6:40 AM 17.6 °F 12.3 °F 17.6 °F 100% 29.57 in 1.5 mi West 3.5 mph - N/A   Overcast
6:53 AM 18.0 °F 12.7 °F 18.0 °F 100% 29.57 in 1.0 mi West 3.5 mph - N/A   Overcast
7:05 AM 17.6 °F - 17.6 °F 100% 29.56 in 0.8 mi Calm Calm - N/A   Overcast
7:27 AM 17.6 °F - 17.6 °F 100% 29.56 in 1.5 mi Calm Calm - N/A   Overcast
7:37 AM 17.6 °F - 17.6 °F 100% 29.56 in 2.5 mi Calm Calm - N/A   Overcast
7:40 AM 17.6 °F - 17.6 °F 100% 29.56 in 1.8 mi Calm Calm - N/A   Overcast
7:53 AM 18.0 °F 12.7 °F 17.1 °F 96% 29.56 in 1.2 mi NW 3.5 mph - N/A   Overcast
8:07 AM 17.6 °F - 17.6 °F 100% 29.56 in 3.0 mi Calm Calm - N/A   Overcast
8:30 AM 19.4 °F - 17.6 °F 93% 29.56 in 2.5 mi Calm Calm - 0.00 in Rain Light Freezing Rain
8:39 AM 19.4 °F - 19.4 °F 100% 29.56 in 1.5 mi Calm Calm - 0.00 in Rain Light Freezing Rain
8:51 AM 19.4 °F 14.3 °F 19.4 °F 100% 29.56 in 2.0 mi North 3.5 mph - 0.00 in Rain Light Freezing Rain
8:53 AM 19.9 °F - 19.9 °F 100% 29.56 in 2.0 mi Calm Calm - 0.00 in Rain Light Freezing Rain
9:15 AM 19.4 °F 12.8 °F 19.4 °F 100% 29.56 in 7.0 mi North 4.6 mph - 0.00 in Rain Light Freezing Rain
9:43 AM 19.4 °F 10.4 °F 19.4 °F 100% 29.55 in 8.0 mi NNE 6.9 mph - 0.00 in Rain Light Freezing Rain
9:53 AM 19.9 °F 11.1 °F 19.0 °F 96% 29.56 in 9.0 mi NE 6.9 mph - 0.00 in Rain Light Freezing Rain
9:59 AM 19.4 °F 12.8 °F 19.4 °F 100% 29.55 in 6.0 mi NNE 4.6 mph - 0.00 in   Overcast
10:18 AM 19.4 °F 11.5 °F 19.4 °F 100% 29.56 in 10.0 mi North 5.8 mph - 0.00 in   Overcast
10:53 AM 18.0 °F 9.8 °F 17.1 °F 96% 29.56 in 10.0 mi North 5.8 mph - 0.00 in   Overcast
11:53 AM 19.9 °F 11.1 °F 18.0 °F 92% 29.56 in 10.0 mi North 6.9 mph - 0.00 in   Overcast
12:25 PM 19.4 °F 7.9 °F 19.4 °F 100% 29.56 in 8.0 mi NNE 10.4 mph - 0.00 in   Overcast
12:45 PM 19.4 °F 8.6 °F 17.6 °F 93% 29.55 in 6.0 mi NNE 9.2 mph - 0.00 in   Overcast
12:53 PM 19.0 °F 7.5 °F 19.0 °F 100% 29.56 in 5.0 mi NNE 10.4 mph - 0.00 in   Overcast
1:21 PM 19.4 °F 8.6 °F 17.6 °F 93% 29.55 in 3.0 mi NNE 9.2 mph - 0.00 in Rain Light Freezing Rain
1:42 PM 19.4 °F 7.9 °F 17.6 °F 93% 29.55 in 4.0 mi NNE 10.4 mph - 0.00 in   Overcast
1:53 PM 19.0 °F 8.2 °F 18.0 °F 96% 29.56 in 8.0 mi NNE 9.2 mph - 0.00 in   Overcast
2:24 PM 19.4 °F 7.2 °F 17.6 °F 93% 29.56 in 2.5 mi NE 11.5 mph - 0.00 in   Overcast
2:34 PM 19.4 °F 9.5 °F 17.6 °F 93% 29.56 in 3.0 mi NE 8.1 mph - 0.00 in   Overcast
2:53 PM 18.0 °F 8.7 °F 18.0 °F 100% 29.56 in 5.0 mi NNE 6.9 mph - 0.00 in   Overcast
3:53 PM 18.0 °F 8.7 °F 17.1 °F 96% 29.56 in 6.0 mi NE 6.9 mph - 0.00 in Snow Light Snow
4:18 PM 17.6 °F 7.3 °F 15.8 °F 93% 29.55 in 4.0 mi NE 8.1 mph - 0.00 in Snow Light Snow
4:53 PM 17.1 °F 6.6 °F 16.0 °F 96% 29.55 in 4.0 mi NE 8.1 mph - 0.00 in Snow Light Snow
5:15 PM 17.6 °F 7.3 °F 15.8 °F 93% 29.55 in 3.0 mi NE 8.1 mph - 0.00 in Snow Light Snow
5:53 PM 16.0 °F 7.4 °F 15.1 °F 96% 29.55 in 8.0 mi NE 5.8 mph - 0.00 in   Overcast
6:26 PM 15.8 °F 7.2 °F 14.0 °F 93% 29.54 in 9.0 mi NE 5.8 mph - 0.00 in   Overcast
6:47 PM 15.8 °F 6.1 °F 14.0 °F 93% 29.54 in 10.0 mi ENE 6.9 mph - 0.00 in   Overcast
6:53 PM 15.1 °F 5.2 °F 14.0 °F 95% 29.55 in 10.0 mi ENE 6.9 mph - 0.00 in   Overcast
7:53 PM 15.1 °F 6.4 °F 14.0 °F 95% 29.55 in 5.0 mi ENE 5.8 mph - 0.00 in Snow Light Snow
8:53 PM 15.1 °F 9.4 °F 14.0 °F 95% 29.55 in 5.0 mi NE 3.5 mph - 0.00 in Snow Light Snow
9:20 PM 15.8 °F 10.2 °F 14.0 °F 93% 29.56 in 5.0 mi NE 3.5 mph - 0.00 in Snow Light Snow
9:53 PM 15.1 °F 7.7 °F 14.0 °F 95% 29.56 in 4.0 mi NE 4.6 mph - 0.00 in Snow Light Snow
10:53 PM 14.0 °F 6.5 °F 12.9 °F 95% 29.57 in 10.0 mi NE 4.6 mph - 0.00 in   Overcast
11:53 PM 12.9 °F 5.2 °F 12.0 °F 96% 29.57 in 10.0 mi NE 4.6 mph - 0.00 in   Overcast